Theta_e
317 318 322 327 327 327 331 330 329 332 335 336 336 335 339 336 337 345 336 347 347 345 338 337 339 340 341 341 338 338 333 332 330 327 326 327 328 330 329 327 324 323 323 325 326 327 327 327 328
320 324 324 326 328 337 341 335 339 339 336 333 334 334 340 346 346 336 341 346 347 345 341 336 338 339 340 339 339 338 333 333 328 326 326 327 327 325 325 324 325 324 324 325 325 326 326 328 329
318 323 325 327 330 338 339 334 335 337 335 336 336 336 339 344 346 347 346 347 346 344 344 336 335 338 339 339 338 335 334 332 327 326 326 326 325 326 326 326 326 323 324 325 325 325 325 327 328
322 323 324 328 332 336 334 334 335 335 337 335 337 339 341 340 344 345 346 347 345 342 344 335 333 334 335 336 336 335 334 328 327 327 326 326 326 328 326 327 327 325 325 324 323 322 322 324 327
325 325 327 329 332 332 331 332 336 336 336 333 338 339 344 344 344 344 346 347 346 343 343 335 333 332 332 334 335 334 329 328 327 326 327 328 328 328 329 330 329 327 325 324 323 323 323 323 323
325 326 329 331 332 328 328 330 331 334 331 333 335 342 344 343 344 345 345 347 347 347 345 334 333 332 331 331 331 330 329 329 328 328 328 329 330 330 330 330 329 329 327 327 326 326 326 326 325
329 330 329 332 331 328 329 328 329 331 332 334 332 345 343 342 346 346 346 348 348 350 346 334 333 333 332 332 331 331 331 330 329 329 330 332 332 331 331 330 330 329 327 326 324 323 322 323 325
328 329 330 329 329 328 328 328 328 328 334 332 332 336 344 345 345 346 348 348 349 351 347 340 338 336 335 335 334 334 333 332 331 331 331 334 333 333 332 330 330 330 329 328 325 321 317 315 317
327 328 329 328 327 329 328 327 327 328 329 331 332 337 341 344 344 346 347 349 349 351 349 346 344 342 342 341 336 335 334 333 333 332 333 335 334 333 334 332 336 330 329 328 326 323 319 315 314
326 328 329 329 328 329 328 327 327 326 327 331 333 337 344 343 343 344 346 348 349 349 349 346 345 344 343 344 341 337 336 335 334 335 335 334 337 337 337 337 335 329 328 328 327 326 324 320 322
325 326 328 329 328 328 328 327 327 327 326 327 332 336 340 342 342 342 342 345 347 347 348 347 346 345 344 343 343 340 340 339 338 339 339 335 339 339 339 337 335 330 328 327 329 329 329 328 327
326 325 325 327 327 327 327 328 328 327 327 328 327 333 335 341 341 340 341 340 345 345 346 347 348 346 344 344 345 343 343 341 340 341 340 338 339 338 338 337 335 334 334 333 333 333 333 331 331
329 328 326 326 325 327 327 327 327 328 328 328 327 327 331 335 337 338 338 338 340 345 344 345 346 347 345 346 344 343 344 343 343 342 341 339 338 338 337 336 337 335 335 334 335 334 333 332 331
328 328 329 328 327 325 325 325 326 327 328 327 328 328 327 329 333 334 337 337 338 341 345 344 346 344 345 345 343 345 344 342 342 341 340 339 338 338 338 335 336 337 337 335 334 333 333 333 332
329 328 328 328 327 327 327 326 326 326 326 327 327 328 328 328 330 332 334 337 339 340 342 344 346 345 343 343 342 343 344 343 343 342 342 340 339 338 337 337 337 336 336 336 336 335 334 333 332
330 329 329 327 326 327 327 328 327 327 327 326 327 327 328 329 328 331 332 337 338 340 342 344 346 345 343 342 341 341 343 342 341 340 340 339 338 338 339 337 337 337 336 336 334 333 332 332 331
329 332 331 329 328 327 328 327 327 328 328 328 328 328 328 329 329 330 331 333 337 341 342 344 344 346 343 341 341 340 341 341 341 339 341 340 338 336 338 337 336 336 336 333 332 330 330 328 328
332 332 332 331 329 328 327 327 327 327 328 328 328 328 328 329 330 330 330 332 335 339 342 344 344 345 343 340 340 340 340 339 339 339 339 338 336 337 338 337 336 336 333 332 331 332 331 329 328
330 331 332 331 329 329 329 329 328 327 328 328 328 328 329 329 328 327 329 330 333 336 343 345 346 344 341 341 341 341 340 339 338 338 337 336 338 339 339 339 336 334 331 331 330 330 328 326 324
332 332 332 330 329 330 329 329 328 328 328 328 328 328 329 329 328 328 329 332 333 336 343 345 348 345 342 341 340 341 339 338 337 336 337 338 339 339 339 336 333 332 331 329 325 327 326 324 324
332 332 331 331 330 330 329 329 328 327 327 328 328 328 329 329 329 330 330 333 335 338 342 345 349 347 344 341 341 340 339 337 337 336 339 339 339 340 339 336 330 329 327 326 325 323 322 323 321
333 331 330 330 331 332 329 330 329 329 329 328 328 328 330 329 330 329 329 329 332 334 336 339 344 349 346 342 341 340 340 338 337 339 338 339 339 339 336 331 329 325 328 325 321 320 320 320 320
330 329 330 330 330 331 329 329 329 328 328 328 328 328 329 331 331 330 330 330 330 332 334 335 337 339 348 343 341 341 339 339 339 339 339 340 339 336 332 329 327 326 322 320 317 316 317 319 320
329 328 329 328 328 331 329 329 329 329 330 328 330 330 332 332 331 330 331 333 333 334 339 341 341 339 346 343 342 342 340 339 340 340 340 339 336 331 328 325 323 320 319 318 316 317 319 320 320
328 329 332 333 335 335 332 331 331 330 329 329 330 330 331 331 331 332 334 334 333 338 339 338 340 343 344 343 343 341 340 340 340 339 338 333 329 326 323 321 320 320 317 315 317 318 319 319 319
329 330 334 334 335 333 331 332 330 329 328 328 328 330 330 330 332 332 332 334 334 337 338 336 337 339 341 341 341 341 340 340 339 337 332 328 323 322 320 319 319 318 318 318 317 318 318 317 317
327 331 329 331 331 333 331 329 329 329 329 329 328 328 330 329 330 331 332 334 335 336 338 336 336 336 337 337 338 339 340 340 338 333 327 322 319 318 318 318 318 319 318 317 316 316 316 317 316
326 325 329 330 334 335 331 331 331 331 329 329 328 329 330 329 330 330 331 335 334 336 337 337 336 337 337 336 336 337 340 339 335 330 323 318 317 316 316 318 318 318 316 315 315 315 315 315 315
325 327 328 328 329 333 334 333 330 332 330 331 332 332 331 330 330 330 331 331 332 334 337 338 337 337 338 337 338 338 339 337 327 320 318 317 316 317 317 317 316 315 315 315 314 314 314 315 315
326 327 327 332 333 332 334 336 330 331 333 333 332 329 329 330 330 329 329 330 330 331 332 335 340 339 339 340 339 338 336 326 320 319 319 318 318 318 318 316 315 314 313 310 308 308 308 308 309
Wind_Speed
9 9 10 13 6 7 11 10 6 8 5 9 10 10 18 21 11 5 5 14 26 25 25 21 20 21 24 24 22 19 18 16 14 12 12 12 12 11 10 9 9 9 8 8 8 7 7 7 7
11 18 14 6 7 5 7 23 23 15 4 6 7 9 20 19 16 9 6 16 23 24 25 24 22 23 23 23 21 20 18 16 14 13 13 12 11 10 9 9 8 8 7 7 6 6 7 7 6
13 18 8 6 11 7 10 14 13 17 8 4 6 17 13 13 12 9 21 23 23 24 22 24 23 22 22 22 21 20 19 16 15 14 13 12 11 10 10 9 8 7 6 6 5 4 5 5 4
9 8 7 7 4 11 17 19 9 20 13 6 21 12 6 6 12 15 21 21 22 23 21 25 23 22 21 21 21 20 18 16 15 14 13 12 11 10 9 8 7 6 5 4 4 4 3 3 3
19 9 13 15 15 16 13 1 18 13 21 8 24 14 9 15 22 22 21 20 21 22 21 24 23 22 22 22 22 20 18 17 15 14 13 12 11 10 9 8 6 4 4 4 3 3 2 3 4
9 10 14 10 13 7 6 1 6 25 4 5 7 18 12 19 19 19 19 19 21 22 19 24 22 22 21 22 21 20 18 17 16 14 13 12 10 10 9 7 5 3 2 2 2 2 2 3 4
13 12 17 4 10 5 7 3 4 5 10 13 8 19 7 15 20 18 18 19 19 20 19 24 23 21 20 20 19 19 18 17 16 14 13 11 10 10 8 6 4 3 3 3 2 3 3 4 5
12 13 23 14 7 6 6 4 4 7 8 6 7 3 12 15 19 18 17 18 19 17 17 20 20 20 20 19 18 18 18 17 15 14 14 11 11 10 8 6 5 4 3 2 2 3 3 4 5
13 11 14 14 4 11 10 5 4 8 4 1 5 15 20 23 21 20 18 16 17 19 18 18 20 19 17 16 19 18 17 17 16 15 14 12 11 10 6 5 7 5 5 4 4 4 4 5 6
11 13 17 14 7 6 4 6 7 6 11 6 5 12 23 21 21 19 19 19 20 20 20 20 21 22 20 19 17 19 19 19 18 16 15 14 12 9 9 10 6 6 6 6 5 6 6 7 6
14 15 19 11 7 8 9 9 8 8 11 3 12 15 16 17 19 19 20 22 21 19 20 24 24 25 24 23 23 21 19 19 18 17 18 16 14 14 15 12 9 10 8 6 4 4 5 4 5
16 17 16 11 2 5 11 11 11 8 13 6 7 13 14 16 14 16 19 22 28 25 22 23 22 26 25 28 24 22 23 22 22 23 22 16 16 18 15 13 12 8 9 4 10 9 5 5 7
12 13 18 9 15 8 12 15 13 12 14 8 6 7 9 13 14 19 20 21 26 29 27 23 26 22 26 27 26 25 22 22 22 21 22 21 18 18 15 15 17 12 13 9 10 7 4 7 9
14 12 13 16 12 15 16 17 16 19 15 16 11 12 10 11 11 14 18 17 18 26 29 28 26 29 28 27 24 22 24 24 20 23 23 23 19 19 18 15 13 11 11 9 8 6 9 9 9
16 18 15 18 17 18 16 19 20 21 18 19 17 14 15 15 17 13 17 20 19 23 28 30 29 27 29 29 30 25 20 22 23 21 23 21 21 15 17 14 14 12 10 9 8 10 10 12 14
15 16 17 18 23 21 18 19 18 20 19 18 15 17 12 14 14 19 20 23 22 20 26 31 26 30 29 30 29 29 22 22 22 20 20 20 21 19 13 14 13 11 10 8 8 10 9 10 11
14 15 18 20 17 8 12 17 22 3 4 8 11 12 11 12 12 15 18 21 23 27 27 31 28 28 27 28 26 27 25 24 21 26 20 21 23 22 18 14 12 12 12 12 12 11 8 9 12
16 13 15 13 10 12 12 15 17 17 14 12 11 11 11 12 13 15 18 16 21 26 32 34 32 26 23 26 25 24 26 27 29 27 26 22 20 21 20 17 14 14 11 11 7 10 6 8 11
18 17 16 18 13 6 8 14 18 17 16 13 12 11 10 9 11 18 21 20 20 22 33 36 36 33 31 27 27 26 27 26 29 31 28 23 24 23 22 19 16 16 12 10 9 5 5 9 12
15 15 16 17 16 15 13 15 18 19 15 15 13 15 14 11 13 13 16 22 19 21 28 31 36 36 35 32 27 21 23 26 28 28 25 26 26 24 23 19 15 16 16 14 8 5 8 8 8
14 15 16 17 16 11 11 19 21 23 22 17 15 14 15 18 15 3 6 11 8 5 12 29 32 38 36 33 30 20 23 20 23 27 26 29 26 26 22 19 19 16 13 9 9 7 7 8 10
13 15 16 15 13 12 15 14 13 16 9 18 17 15 10 7 7 3 3 9 13 12 12 12 20 31 37 36 34 33 24 23 25 24 26 26 28 25 22 20 20 15 12 12 9 7 9 10 12
13 8 11 11 13 14 17 12 15 16 15 13 14 14 13 8 9 6 3 2 7 13 13 15 16 14 33 37 35 35 29 27 23 26 28 29 29 24 24 20 17 16 15 13 11 12 13 13 14
10 8 12 12 11 11 17 14 13 13 10 2 11 11 9 7 6 4 7 9 7 8 9 8 10 13 27 27 27 29 30 28 26 28 27 28 25 25 22 20 18 16 14 13 13 13 15 16 17
10 9 7 8 8 11 16 12 14 12 7 3 9 9 7 7 5 7 9 7 9 11 9 9 13 11 22 25 25 26 32 33 28 27 26 25 26 25 22 20 18 16 15 14 13 15 17 18 18
16 13 7 11 12 14 15 6 9 7 2 3 4 1 12 9 7 6 6 8 16 16 15 15 15 14 14 18 22 24 32 28 26 24 24 25 23 23 21 21 18 16 14 13 14 16 19 20 21
11 13 13 14 13 12 12 20 18 18 11 7 7 7 6 5 6 7 6 9 12 17 16 17 16 17 19 20 21 25 28 26 28 23 22 25 23 21 23 21 18 16 15 14 14 16 18 20 21
13 12 9 6 10 16 13 16 7 8 4 3 2 5 6 6 7 7 5 11 13 17 20 22 21 20 20 23 24 24 23 25 27 25 27 25 22 18 19 18 18 17 14 12 14 18 20 22 24
12 13 12 14 11 13 14 10 16 3 3 5 7 5 9 9 7 5 6 6 11 11 15 18 18 19 22 24 23 25 23 25 22 26 26 19 19 19 17 17 14 10 9 11 14 18 21 23 24
18 17 17 12 13 15 15 16 11 14 8 6 6 7 2 5 4 6 7 11 11 11 14 15 22 21 21 25 25 27 23 23 20 20 21 21 20 20 18 13 10 9 9 14 14 17 19 21 24
Wind_Direction
241 247 247 250 251 234 285 262 128 169 107 48 40 60 123 145 167 199 200 106 122 136 151 150 148 145 148 151 152 154 155 153 148 146 141 137 138 138 135 133 130 129 128 132 131 131 126 120 115
262 261 243 274 254 43 343 289 79 17 71 132 96 84 96 103 108 135 165 139 131 148 147 154 149 148 149 151 154 156 159 157 155 153 152 150 147 145 142 140 135 130 131 130 130 129 120 120 124
273 271 257 225 223 134 234 257 155 170 189 217 111 63 41 99 96 109 137 142 142 147 151 159 151 149 152 154 157 160 162 162 161 160 161 159 152 151 148 146 144 140 136 138 132 124 112 123 139
255 226 250 246 97 172 214 253 109 48 343 355 75 20 37 76 108 129 139 141 144 149 155 157 153 152 153 157 162 164 165 165 166 166 166 162 157 158 153 152 148 144 147 144 140 140 131 148 170
246 267 247 252 158 179 200 69 98 111 199 43 114 174 115 92 111 130 137 139 138 150 158 162 159 158 158 161 165 167 168 170 170 170 169 166 164 163 156 152 151 147 150 151 149 136 156 189 206
246 238 274 273 224 115 92 81 308 173 88 79 121 123 119 127 122 132 136 137 143 149 151 166 166 166 168 169 171 171 174 173 174 173 173 170 168 167 162 164 159 146 139 147 156 171 209 237 247
251 267 269 335 263 167 107 315 267 342 32 31 340 65 136 137 131 137 139 141 145 147 154 168 170 173 175 176 176 176 177 178 178 177 176 177 175 174 174 173 168 173 180 189 198 216 231 243 256
251 285 281 258 168 169 116 248 38 296 17 313 10 109 151 118 141 143 145 146 150 148 162 172 168 176 178 179 181 181 182 182 181 181 184 183 183 186 184 187 200 223 228 232 235 243 252 258 251
275 271 266 263 271 133 121 235 141 336 241 215 70 68 128 139 151 152 152 154 161 152 160 166 170 175 176 183 184 187 187 186 186 189 192 191 191 196 198 204 230 270 245 244 255 267 277 273 274
229 254 278 343 87 80 96 266 191 185 230 156 146 94 122 150 162 169 172 167 174 175 167 176 179 179 181 182 194 189 191 191 192 194 196 195 186 214 204 219 233 261 242 242 253 268 276 283 270
251 257 284 326 7 339 289 185 273 276 273 190 173 156 150 168 181 186 188 182 179 184 177 179 183 182 184 186 193 186 193 193 196 197 207 194 199 205 208 216 247 241 234 244 246 270 306 332 317
261 263 290 303 96 269 274 286 276 219 275 31 70 130 163 174 193 203 198 198 175 176 185 182 175 190 195 188 183 187 188 195 199 201 206 199 207 206 208 221 219 215 215 216 233 255 262 260 277
254 267 282 275 279 253 266 272 279 274 275 277 189 221 201 185 201 206 212 206 182 169 177 185 182 182 189 198 204 197 194 195 197 200 206 205 213 210 209 223 228 203 209 223 213 235 257 269 272
287 285 277 282 262 259 256 260 260 253 256 273 236 228 207 242 213 221 204 212 197 169 167 176 186 191 194 193 192 199 201 204 205 209 216 209 215 210 206 215 200 201 205 209 239 252 249 258 258
281 272 271 258 255 255 253 256 253 257 255 238 241 235 230 220 215 212 214 201 198 170 168 174 181 190 193 200 202 201 200 207 208 211 208 210 210 214 204 213 217 213 215 215 222 241 262 268 274
270 267 264 260 244 229 225 257 259 253 229 237 238 246 240 207 240 199 219 189 197 185 173 168 172 186 190 197 200 204 200 205 207 203 209 210 208 212 213 213 213 210 207 214 234 248 255 280 280
247 253 255 251 245 190 192 252 256 237 184 251 262 254 243 230 214 228 216 198 189 182 173 167 179 182 188 195 200 207 208 209 202 204 200 195 203 209 213 214 212 205 199 226 233 236 247 269 274
260 247 234 250 218 208 241 246 252 265 204 216 238 245 234 215 214 212 216 211 194 189 178 173 179 182 192 192 196 200 205 209 211 210 210 206 208 206 209 210 211 209 208 225 241 218 235 273 283
272 292 298 303 316 200 240 276 282 284 278 243 200 235 222 219 208 213 208 202 205 199 176 173 172 181 192 193 195 197 198 202 210 215 214 204 205 207 214 206 212 205 215 210 218 219 274 271 287
279 281 275 280 283 285 283 278 273 270 256 251 228 207 223 208 224 218 203 183 198 199 176 172 171 177 191 192 200 200 195 202 209 206 209 204 201 207 207 206 205 192 207 226 240 230 248 271 270
260 262 274 281 289 292 265 264 263 258 249 256 235 235 219 215 218 121 150 139 134 174 174 180 174 179 189 187 189 199 194 206 202 208 206 206 206 207 206 212 204 207 220 222 222 222 237 261 268
257 254 258 261 277 270 276 293 285 292 245 222 230 232 228 240 106 65 151 160 173 203 226 232 201 186 187 185 184 188 197 202 208 206 206 207 208 209 208 201 203 200 208 215 218 246 265 245 258
260 337 297 293 275 275 269 269 271 267 257 207 211 213 213 124 122 160 128 134 185 194 202 220 240 244 184 181 187 188 191 208 209 210 205 206 207 209 201 201 199 198 211 221 234 241 254 259 259
257 294 266 263 264 263 262 254 270 272 312 188 71 72 93 106 123 153 156 176 204 185 168 201 230 238 184 186 195 197 193 196 216 208 209 203 199 190 192 195 201 205 212 223 240 252 258 261 257
244 254 266 238 228 244 257 239 229 262 2 81 132 141 141 153 178 172 155 175 211 161 178 198 216 218 178 192 201 205 199 202 217 213 211 183 180 190 191 195 199 203 217 235 245 254 258 257 260
206 225 253 294 304 309 308 253 258 296 29 27 358 47 159 174 177 202 191 165 170 171 187 199 216 226 204 203 212 213 214 214 220 205 185 192 190 188 195 196 202 208 220 234 247 255 258 265 263
268 221 239 274 279 276 270 281 278 266 232 196 240 225 253 218 207 184 175 169 166 177 186 194 206 217 218 219 220 221 217 218 210 194 197 200 195 190 189 190 200 211 225 243 257 260 265 263 263
251 282 265 237 262 260 258 270 253 10 11 162 227 201 227 207 234 169 192 168 192 194 191 193 202 213 216 221 223 224 224 210 200 204 199 189 181 177 182 189 202 217 235 251 260 267 266 262 265
249 229 247 261 256 274 278 260 292 72 39 325 319 249 208 200 198 180 186 196 196 203 194 195 203 213 214 211 214 216 218 201 201 188 186 175 183 192 198 207 214 232 247 264 267 268 271 269 269
246 257 260 244 253 254 251 248 242 279 302 292 254 254 280 286 238 239 200 188 210 219 226 228 203 215 226 212 210 217 208 199 192 185 184 190 191 194 191 196 206 223 246 266 270 272 276 279 283